KA7VEE Weather Reports


time (UTC)temp
C
wind
direction
speed
KPH
gust
KPH
rain 1hr
cm
rain 24hr
cm
rain mn
cm
humidity
%
barometer
mb
20260503212135 -17 84 1.6 12.9 0.00 0.00 0.00 1010.2
20260503211632 -17 81 3.2 12.9 0.00 0.00 0.00 1010.4
20260503211127 -17 165 4.8 8.0 0.00 0.00 0.00 1010.3
20260503210624 -17 84 6.4 12.9 0.00 0.00 0.00 1010.2
20260503210121 -17 113 3.2 12.9 0.00 0.00 0.00 1010.4
20260503205616 -17 91 3.2 4.8 0.00 0.00 0.00 1010.4
20260503205113 -17 73 4.8 11.3 0.00 0.00 0.00 1010.4
20260503204610 -17 101 1.6 12.9 0.00 0.00 0.00 1010.4
20260503204107 -17 105 0.0 8.0 0.00 0.00 0.00 1010.5
20260503203604 -17 97 0.0 4.8 0.00 0.00 0.00 1010.3
20260503203101 -17 104 4.8 8.0 0.00 0.00 0.00 1010.7
20260503202559 -17 145 6.4 9.7 0.00 0.00 0.00 1010.3
20260503202057 -17 110 1.6 3.2 0.00 0.00 0.00 1010.4
20260503201555 -17 90 1.6 3.2 0.00 0.00 0.00 1010.7
20260503201052 -17 79 4.8 9.7 0.00 0.00 0.00 1010.4
20260503200548 -17 78 4.8 9.7 0.00 0.00 0.00 1010.7
20260503200044 -17 92 8.0 9.7 0.00 0.00 0.00 1010.7
20260503195542 -17 100 3.2 4.8 0.00 0.00 0.00 1010.8
20260503195038 -17 117 6.4 9.7 0.00 0.00 0.00 1010.9
20260503194536 -17 98 0.0 3.2 0.00 0.00 0.00 1010.9
20260503194035 -17 103 0.0 3.2 0.00 0.00 0.00 1011.0
20260503193532 -17 101 1.6 4.8 0.00 0.00 0.00 1011.0
20260503193027 -17 94 3.2 8.0 0.00 0.00 0.00 1011.0
20260503192524 -17 51 4.8 9.7 0.00 0.00 0.00 1011.3
20260503192020 -17 68 3.2 9.7 0.00 0.00 0.00 1011.4
20260503191517 -17 100 1.6 9.7 0.00 0.00 0.00 1011.3
20260503191014 -17 118 1.6 4.8 0.00 0.00 0.00 1011.3
20260503190511 -17 83 3.2 4.8 0.00 0.00 0.00 1011.5
20260503190008 -17 90 1.6 4.8 0.00 0.00 0.00 1011.2
20260503185504 -17 144 1.6 9.7 0.00 0.00 0.00 1011.3
20260503184958 -17 43 4.8 9.7 0.00 0.00 0.00 1011.5
20260503184454 -17 82 3.2 11.3 0.00 0.00 0.00 1011.4
20260503183951 -17 350 4.8 8.0 0.00 0.00 0.00 1011.3
20260503183448 -17 136 4.8 9.7 0.00 0.00 0.00 1011.6
20260503182944 -17 84 3.2 9.7 0.00 0.00 0.00 1011.5
20260503182443 -17 103 3.2 4.8 0.00 0.00 0.00 1011.6
20260503181941 -17 98 1.6 4.8 0.00 0.00 0.00 1011.8
20260503181438 -17 102 1.6 4.8 0.00 0.00 0.00 1011.7
20260503180933 -17 119 0.0 4.8 0.00 0.00 0.00 1011.8
20260503180432 -17 103 3.2 4.8 0.00 0.00 0.00 1011.8
20260503175928 -17 103 3.2 8.0 0.00 0.00 0.00 1011.8
20260503175427 -17 120 4.8 8.0 0.00 0.00 0.00 1011.9
20260503174922 -17 120 4.8 8.0 0.00 0.00 0.00 1011.9
20260503174421 -17 183 4.8 4.8 0.00 0.00 0.00 1011.9
20260503173920 -17 105 3.2 4.8 0.00 0.00 0.00 1012.0
20260503173417 -17 106 0.0 1.6 0.00 0.00 0.00 1012.1
20260503172914 -17 124 3.2 4.8 0.00 0.00 0.00 1012.1
20260503172411 -17 123 1.6 8.0 0.00 0.00 0.00 1012.1
20260503171907 -17 123 3.2 8.0 0.00 0.00 0.00 1012.1
20260503171404 -17 105 1.6 25.7 0.00 0.00 0.00 1012.3
20260503170902 -17 0.0 0.0 0.00 0.00 0.00 1012.1
20260503170358 -17 0.0 0.0 0.00 0.00 0.00 1012.2
20260503150750 -17 0.0 0.0 0.00 0.00 0.00 1012.7
20260503150246 -17 0.0 0.0 0.00 0.00 0.00 1012.6
20260503140211 -17 0.0 0.0 0.00 0.00 0.00 1012.6
20260503131140 -17 0.0 0.0 0.00 0.00 0.00 1012.7
20260503130638 -17 0.0 0.0 0.00 0.00 0.00 1012.5
20260503130135 -17 0.0 0.0 0.00 0.00 0.00 1012.3
20260503110527 -17 0.0 0.0 0.00 0.00 0.00 1012.7
20260503090415 -17 0.0 0.0 0.00 0.00 0.00 1012.8
20260503081341 -17 0.0 0.0 0.00 0.00 0.00 1012.9
20260503080838 -17 0.0 0.0 0.00 0.00 0.00 1012.9
20260503080335 -17 0.0 0.0 0.00 0.00 0.00 1013.0
20260503072811 -17 0.0 0.0 0.00 0.00 0.00 1013.0
20260503072308 -17 0.0 0.0 0.00 0.00 0.00 1012.8
20260503071804 -17 0.0 0.0 0.00 0.00 0.00 1013.0
20260503071302 -17 0.0 0.0 0.00 0.00 0.00 1012.7
20260503070758 -17 0.0 0.0 0.00 0.00 0.00 1012.8
20260503070256 -17 0.0 0.0 0.00 0.00 0.00 1012.7
20260503060215 -17 0.0 0.0 0.00 0.00 0.00 1012.6
20260503054702 -17 0.0 0.0 0.00 0.00 0.00 1012.6
20260503054159 -17 0.0 0.0 0.00 0.00 0.00 1012.5
20260503053657 -17 0.0 0.0 0.00 0.00 0.00 1012.7
20260503053155 -17 0.0 0.0 0.00 0.00 0.00 1012.5
20260503052652 -17 0.0 0.0 0.00 0.00 0.00 1012.5
20260503052148 -17 0.0 0.0 0.00 0.00 0.00 1012.6
20260503051643 -17 0.0 0.0 0.00 0.00 0.00 1012.5
20260503051141 -17 0.0 0.0 0.00 0.00 0.00 1012.5
20260503050638 -17 0.0 0.0 0.00 0.00 0.00 1012.3
20260503050134 -17 0.0 0.0 0.00 0.00 0.00 1012.4
20260503045632 -17 0.0 0.0 0.00 0.00 0.00 1012.4
20260503045129 -17 0.0 0.0 0.00 0.00 0.00 1012.4
20260503044625 -17 0.0 0.0 0.00 0.00 0.00 1012.3
20260503044123 -17 0.0 0.0 0.00 0.00 0.00 1012.3
20260503043620 -17 0.0 0.0 0.00 0.00 0.00 1012.3
20260503043116 -17 0.0 0.0 0.00 0.00 0.00 1012.1
20260503042613 -17 202 3.2 3.2 0.00 0.00 0.00 1012.2
20260503042109 -17 202 3.2 3.2 0.00 0.00 0.00 1012.0
20260503041606 -17 202 3.2 3.2 0.00 0.00 0.00 1012.1
20260503041104 -17 202 3.2 3.2 0.00 0.00 0.00 1012.2
20260503040601 -17 202 3.2 3.2 0.00 0.00 0.00 1012.1
20260503040058 -17 202 3.2 3.2 0.00 0.00 0.00 1011.8
20260503035554 -17 202 3.2 3.2 0.00 0.00 0.00 1011.8
20260503035052 -17 202 3.2 3.2 0.00 0.00 0.00 1011.7
20260503034549 -17 202 3.2 3.2 0.00 0.00 0.00 1011.6
20260503034046 -17 202 3.2 3.2 0.00 0.00 0.00 1011.5
20260503033543 -17 202 3.2 3.2 0.00 0.00 0.00 1011.5
20260503033041 -17 202 3.2 3.2 0.00 0.00 0.00 1011.5
20260503032539 -17 202 3.2 4.8 0.00 0.00 0.00 1011.5
20260503032037 -17 202 0.0 3.2 0.00 0.00 0.00 1011.5
20260503031535 -17 130 0.0 3.2 0.00 0.00 0.00 1011.6
20260503031032 -17 123 0.0 3.2 0.00 0.00 0.00 1011.3
20260503030528 -17 122 1.6 3.2 0.00 0.00 0.00 1011.6
20260503030025 -17 112 1.6 3.2 0.00 0.00 0.00 1011.5
20260503025521 -17 108 0.0 1.6 0.00 0.00 0.00 1011.3
20260503025020 -17 95 0.0 1.6 0.00 0.00 0.00 1011.4
20260503024515 -17 100 1.6 8.0 0.00 0.00 0.00 1011.2
20260503024013 -17 112 4.8 8.0 0.00 0.00 0.00 1011.5
20260503023509 -17 111 0.0 4.8 0.00 0.00 0.00 1011.4
20260503023007 -17 97 1.6 3.2 0.00 0.00 0.00 1011.3
20260503022502 -17 92 0.0 4.8 0.00 0.00 0.00 1011.3
20260503021957 -17 96 3.2 8.0 0.00 0.00 0.00 1011.2
20260503021454 -17 76 4.8 11.3 0.00 0.00 0.00 1011.2
20260503020952 -17 120 1.6 9.7 0.00 0.00 0.00 1011.3
20260503020449 -17 94 4.8 9.7 0.00 0.00 0.00 1011.4
20260503015945 -17 129 1.6 8.0 0.00 0.00 0.00 1011.3
20260503015442 -17 98 3.2 11.3 0.00 0.00 0.00 1011.6
20260503014938 -17 71 11.3 14.5 0.00 0.00 0.00 1011.3
20260503014435 -17 68 3.2 9.7 0.00 0.00 0.00 1011.4
20260503013934 -17 81 3.2 4.8 0.00 0.00 0.00 1011.6
20260503013430 -17 110 1.6 8.0 0.00 0.00 0.00 1011.6
20260503012927 -17 92 6.4 14.5 0.00 0.00 0.00 1011.5
20260503012425 -17 80 6.4 11.3 0.00 0.00 0.00 1011.4
20260503011921 -17 84 3.2 8.0 0.00 0.00 0.00 1011.6
20260503011412 -17 133 11.3 12.9 0.00 0.00 0.00 1011.6
20260503010909 -17 92 6.4 11.3 0.00 0.00 0.00 1011.6
20260503010406 -17 90 1.6 4.8 0.00 0.00 0.00 1011.8
20260503005903 -17 96 4.8 8.0 0.00 0.00 0.00 1011.8
20260503005401 -17 72 1.6 3.2 0.00 0.00 0.00 1011.9
20260503004857 -17 81 11.3 12.9 0.00 0.00 0.00 1011.9
20260503004354 -17 62 6.4 16.1 0.00 0.00 0.00 1011.8
20260503003852 -17 96 4.8 8.0 0.00 0.00 0.00 1011.7
20260503003348 -17 117 3.2 9.7 0.00 0.00 0.00 1011.8
20260503002845 -17 138 3.2 12.9 0.00 0.00 0.00 1011.9
20260503002343 -17 93 3.2 9.7 0.00 0.00 0.00 1011.8
20260503001839 -17 133 3.2 8.0 0.00 0.00 0.00 1011.8
20260503001335 -17 78 6.4 11.3 0.00 0.00 0.00 1011.7
20260503000833 -17 87 4.8 11.3 0.00 0.00 0.00 1011.8
20260503000330 -17 110 3.2 4.8 0.00 0.00 0.00 1012.0
20260502235827 -17 131 4.8 11.3 0.00 0.00 0.00 1011.9
20260502235324 -17 79 4.8 11.3 0.00 0.00 0.00 1011.9
20260502234821 -17 64 6.4 12.9 0.00 0.00 0.00 1012.0
20260502234318 -17 99 3.2 9.7 0.00 0.00 0.00 1012.0
20260502233814 -17 143 8.0 9.7 0.00 0.00 0.00 1012.0
20260502233311 -17 93 4.8 8.0 0.00 0.00 0.00 1012.1
20260502232808 -17 73 3.2 8.0 0.00 0.00 0.00 1012.1
20260502232305 -17 108 3.2 8.0 0.00 0.00 0.00 1012.2
20260502231800 -17 97 6.4 9.7 0.00 0.00 0.00 1012.2
20260502231258 -17 114 0.0 8.0 0.00 0.00 0.00 1012.3
20260502230756 -17 140 3.2 12.9 0.00 0.00 0.00 1012.2
20260502230254 -17 135 4.8 9.7 0.00 0.00 0.00 1012.3
20260502225750 -17 89 3.2 4.8 0.00 0.00 0.00 1012.4
20260502225247 -17 138 3.2 11.3 0.00 0.00 0.00 1012.4
20260502224744 -17 113 4.8 8.0 0.00 0.00 0.00 1012.7
20260502224240 -17 82 4.8 8.0 0.00 0.00 0.00 1012.7
20260502223738 -17 117 8.0 14.5 0.00 0.00 0.00 1012.7
20260502223236 -17 102 4.8 12.9 0.00 0.00 0.00 1012.7
20260502222733 -17 145 8.0 11.3 0.00 0.00 0.00 1012.7
20260502222230 -17 126 6.4 14.5 0.00 0.00 0.00 1013.1
20260502221726 -17 79 3.2 4.8 0.00 0.00 0.00 1012.9
20260502221223 -17 90 6.4 12.9 0.00 0.00 0.00 1013.1
20260502220719 -17 32 3.2 12.9 0.00 0.00 0.00 1012.9
20260502220215 -17 71 3.2 8.0 0.00 0.00 0.00 1013.2
20260502215713 -17 39 11.3 16.1 0.00 0.00 0.00 1013.2
20260502215209 -17 89 4.8 9.7 0.00 0.00 0.00 1013.1
20260502214707 -17 99 6.4 12.9 0.00 0.00 0.00 1013.2
20260502214204 -17 109 4.8 8.0 0.00 0.00 0.00 1013.2
20260502213701 -17 93 3.2 14.5 0.00 0.00 0.00 1013.4
20260502213158 -17 80 4.8 12.9 0.00 0.00 0.00 1013.4
20260502212656 -17 71 8.0 12.9 0.00 0.00 0.00 1013.4
20260502212154 -17 131 6.4 9.7 0.00 0.00 0.00 1013.4